QPF
0.00 0.00 0.00 0.00 0.00 0.00 0.00 0.00 0.00 0.00 0.00 0.00 0.00 0.00 0.00 0.00 0.00 0.00 0.00 0.00 0.00 0.00 0.00 0.00 0.00 0.00 0.00 0.00 0.00 0.00 0.00 0.00
0.00 0.00 0.00 0.00 0.00 0.00 0.00 0.00 0.00 0.00 0.00 0.00 0.00 0.00 0.00 0.00 0.00 0.00 0.00 0.00 0.00 0.00 0.00 0.00 0.00 0.00 0.00 0.00 0.00 0.00 0.00 0.00
0.00 0.00 0.00 0.00 0.00 0.00 0.00 0.00 0.00 0.00 0.00 0.00 0.00 0.00 0.00 0.00 0.00 0.00 0.00 0.00 0.00 0.00 0.00 0.00 0.00 0.00 0.00 0.00 0.00 0.00 0.00 0.00
0.00 0.00 0.00 0.00 0.00 0.00 0.00 0.00 0.00 0.00 0.00 0.00 0.00 0.00 0.00 0.00 0.00 0.00 0.00 0.00 0.00 0.00 0.00 0.00 0.00 0.00 0.00 0.00 0.00 0.00 0.00 0.00
0.00 0.00 0.00 0.00 0.00 0.00 0.00 0.00 0.00 0.00 0.00 0.00 0.00 0.00 0.00 0.00 0.00 0.00 0.00 0.00 0.00 0.00 0.00 0.00 0.00 0.00 0.00 0.00 0.00 0.00 0.00 0.00
0.00 0.00 0.00 0.00 0.00 0.00 0.00 0.00 0.00 0.00 0.00 0.00 0.00 0.00 0.00 0.00 0.00 0.00 0.00 0.00 0.00 0.00 0.00 0.00 0.00 0.00 0.00 0.00 0.00 0.00 0.00 0.00
0.00 0.00 0.00 0.00 0.00 0.00 0.00 0.00 0.00 0.00 0.00 0.00 0.00 0.00 0.00 0.00 0.00 0.00 0.00 0.00 0.00 0.00 0.00 0.00 0.00 0.00 0.00 0.00 0.00 0.00 0.00 0.00
0.00 0.00 0.00 0.00 0.00 0.00 0.00 0.00 0.00 0.00 0.00 0.00 0.00 0.00 0.00 0.00 0.00 0.00 0.00 0.00 0.00 0.00 0.00 0.00 0.00 0.00 0.00 0.00 0.00 0.00 0.00 0.00
0.00 0.00 0.00 0.00 0.00 0.00 0.00 0.00 0.00 0.00 0.00 0.00 0.00 0.00 0.00 0.00 0.00 0.00 0.00 0.00 0.00 0.00 0.00 0.00 0.00 0.00 0.00 0.00 0.00 0.00 0.00 0.00
0.00 0.00 0.00 0.00 0.00 0.00 0.00 0.00 0.00 0.00 0.00 0.00 0.00 0.00 0.00 0.00 0.00 0.00 0.00 0.00 0.00 0.00 0.00 0.00 0.00 0.00 0.00 0.00 0.00 0.00 0.00 0.00
0.00 0.00 0.00 0.00 0.00 0.00 0.00 0.00 0.00 0.00 0.00 0.00 0.00 0.00 0.00 0.00 0.00 0.00 0.00 0.00 0.00 0.00 0.00 0.00 0.00 0.00 0.00 0.00 0.00 0.00 0.00 0.00
0.00 0.00 0.00 0.00 0.00 0.00 0.00 0.00 0.00 0.00 0.00 0.00 0.00 0.00 0.00 0.00 0.00 0.00 0.00 0.00 0.00 0.00 0.00 0.00 0.00 0.00 0.00 0.00 0.00 0.00 0.00 0.00
0.00 0.00 0.00 0.00 0.00 0.00 0.00 0.00 0.00 0.00 0.00 0.00 0.00 0.00 0.00 0.00 0.00 0.00 0.00 0.00 0.00 0.00 0.00 0.00 0.00 0.00 0.00 0.00 0.00 0.00 0.00 0.00
0.00 0.00 0.00 0.00 0.00 0.00 0.00 0.00 0.00 0.00 0.00 0.00 0.00 0.00 0.00 0.00 0.00 0.00 0.00 0.00 0.00 0.00 0.00 0.00 0.00 0.00 0.00 0.00 0.00 0.00 0.00 0.00
0.00 0.00 0.00 0.00 0.00 0.00 0.00 0.00 0.00 0.00 0.00 0.00 0.00 0.00 0.00 0.00 0.00 0.00 0.00 0.00 0.00 0.00 0.00 0.00 0.00 0.00 0.00 0.00 0.00 0.00 0.00 0.00
0.00 0.00 0.00 0.00 0.00 0.00 0.00 0.00 0.00 0.00 0.00 0.00 0.00 0.00 0.00 0.00 0.00 0.00 0.00 0.00 0.00 0.00 0.00 0.00 0.00 0.00 0.00 0.00 0.00 0.00 0.00 0.00
0.00 0.00 0.00 0.00 0.00 0.00 0.00 0.00 0.00 0.00 0.00 0.00 0.00 0.00 0.00 0.00 0.00 0.00 0.00 0.02 0.06 0.04 0.01 0.00 0.00 0.00 0.00 0.00 0.00 0.00 0.00 0.00
0.00 0.00 0.00 0.00 0.00 0.00 0.00 0.00 0.00 0.00 0.00 0.00 0.00 0.00 0.00 0.00 0.00 0.01 0.08 0.14 0.16 0.08 0.01 0.01 0.00 0.00 0.00 0.00 0.00 0.00 0.00 0.00
0.00 0.00 0.00 0.00 0.00 0.00 0.00 0.00 0.00 0.00 0.00 0.00 0.00 0.00 0.00 0.00 0.02 0.02 0.10 0.17 0.14 0.10 0.06 0.03 0.01 0.00 0.00 0.00 0.00 0.00 0.00 0.00
0.00 0.00 0.00 0.00 0.00 0.00 0.00 0.00 0.00 0.00 0.00 0.00 0.01 0.01 0.00 0.01 0.03 0.07 0.11 0.13 0.12 0.08 0.05 0.02 0.00 0.00 0.00 0.00 0.00 0.00 0.00 0.00
MSLP
1013.69 1014.03 1014.34 1014.65 1014.81 1015.18 1015.55 1015.87 1016.34 1016.70 1017.03 1017.41 1017.80 1017.96 1018.14 1018.36 1018.55 1018.78 1019.02 1019.19 1019.31 1019.42 1019.54 1019.68 1019.77 1019.80 1019.76 1019.73 1019.67 1019.58 1019.62 1019.51
1013.91 1014.20 1014.47 1014.85 1015.15 1015.35 1015.62 1015.95 1016.29 1016.59 1016.93 1017.31 1017.73 1018.02 1018.21 1018.41 1018.62 1018.85 1019.00 1019.16 1019.27 1019.31 1019.38 1019.48 1019.54 1019.55 1019.65 1019.74 1019.67 1019.60 1019.53 1019.44
1013.84 1014.24 1014.55 1014.88 1015.15 1015.47 1015.78 1016.07 1016.38 1016.61 1016.78 1017.19 1017.60 1017.95 1018.20 1018.37 1018.61 1018.78 1018.91 1019.06 1019.21 1019.27 1019.30 1019.32 1019.37 1019.40 1019.43 1019.47 1019.55 1019.56 1019.49 1019.51
1013.90 1014.05 1014.40 1014.73 1015.01 1015.43 1015.79 1016.10 1016.42 1016.71 1016.87 1017.06 1017.35 1017.68 1017.99 1018.21 1018.44 1018.60 1018.73 1018.89 1019.05 1019.13 1019.20 1019.28 1019.37 1019.48 1019.50 1019.50 1019.66 1019.54 1019.57 1019.44
1013.39 1013.90 1014.05 1014.40 1014.77 1015.32 1015.74 1016.00 1016.31 1016.61 1016.83 1017.05 1017.35 1017.58 1017.76 1018.01 1018.30 1018.51 1018.71 1018.78 1018.97 1019.05 1019.23 1019.32 1019.31 1019.33 1019.41 1019.48 1019.47 1019.51 1019.57 1019.48
1013.30 1013.45 1013.83 1014.12 1014.48 1014.88 1015.29 1015.67 1016.04 1016.37 1016.64 1017.04 1017.39 1017.67 1017.84 1017.90 1018.12 1018.33 1018.50 1018.62 1018.88 1019.05 1019.15 1019.20 1019.18 1019.30 1019.31 1019.27 1019.37 1019.50 1019.66 1019.58
1012.81 1013.15 1013.41 1013.64 1014.11 1014.55 1014.85 1015.07 1015.37 1015.64 1016.05 1016.44 1016.91 1017.31 1017.55 1017.69 1017.79 1018.02 1018.28 1018.45 1018.62 1018.81 1018.94 1019.03 1019.17 1019.24 1019.25 1019.28 1019.47 1019.55 1019.76 1019.86
1012.26 1012.69 1013.00 1013.20 1013.52 1013.80 1014.12 1014.49 1014.87 1015.20 1015.38 1015.69 1016.14 1016.58 1016.95 1017.30 1017.52 1017.71 1017.82 1018.01 1018.26 1018.46 1018.71 1018.83 1019.08 1019.13 1019.50 1019.63 1019.78 1019.80 1019.89 1019.92
1011.22 1011.89 1012.42 1012.65 1012.79 1013.21 1013.44 1013.74 1014.33 1014.86 1015.08 1015.23 1015.46 1015.93 1016.36 1016.62 1016.86 1017.22 1017.26 1017.45 1017.81 1018.24 1018.55 1018.90 1019.22 1019.43 1019.84 1019.97 1019.94 1019.88 1019.80 1019.88
1010.53 1010.96 1011.57 1012.05 1012.22 1012.64 1012.85 1013.15 1013.47 1013.89 1014.39 1014.81 1015.15 1015.44 1015.73 1016.11 1016.45 1016.55 1016.66 1017.05 1017.30 1017.82 1018.31 1018.95 1019.27 1019.54 1019.93 1020.09 1020.13 1020.03 1020.01 1020.15
1009.82 1010.30 1010.62 1011.46 1012.21 1012.56 1012.71 1012.88 1013.15 1013.36 1013.74 1014.08 1014.39 1014.77 1015.14 1015.51 1015.74 1015.93 1016.13 1016.51 1016.87 1017.30 1018.01 1018.49 1019.27 1019.76 1020.00 1020.35 1020.58 1020.67 1020.61 1020.62
1009.35 1009.76 1010.03 1010.66 1011.72 1012.15 1012.41 1012.70 1012.70 1012.72 1012.92 1013.21 1013.67 1014.00 1014.32 1014.83 1015.20 1015.52 1015.79 1016.18 1016.63 1017.14 1017.56 1018.38 1018.97 1019.45 1020.07 1020.54 1020.83 1020.96 1020.99 1021.17
1008.24 1008.85 1009.12 1009.99 1010.45 1011.21 1011.42 1011.14 1011.89 1012.09 1012.19 1012.41 1012.75 1013.18 1013.62 1014.03 1014.44 1015.05 1015.38 1015.87 1016.22 1016.96 1017.78 1018.39 1019.09 1019.43 1020.40 1021.13 1021.15 1021.20 1021.33 1021.39
1007.14 1007.48 1008.22 1008.51 1009.03 1009.25 1010.24 1010.69 1010.86 1011.42 1011.83 1011.69 1011.92 1012.23 1012.54 1012.99 1013.63 1014.18 1014.74 1015.45 1016.03 1016.56 1017.05 1018.36 1018.92 1019.14 1019.93 1020.91 1021.45 1021.67 1021.49 1021.48
1005.76 1005.72 1006.26 1006.74 1007.49 1008.81 1009.65 1010.09 1010.40 1010.47 1010.29 1010.63 1010.67 1011.07 1011.37 1012.00 1012.58 1013.31 1013.99 1014.66 1015.39 1015.81 1016.27 1017.08 1018.47 1019.37 1019.40 1019.88 1021.14 1021.18 1021.52 1021.73
1005.43 1005.69 1006.06 1006.82 1007.37 1007.46 1007.76 1007.67 1008.34 1007.75 1008.53 1009.44 1009.90 1010.04 1010.63 1011.12 1011.83 1012.51 1013.12 1013.86 1014.53 1015.13 1015.64 1016.27 1017.24 1018.55 1019.41 1019.67 1020.04 1020.31 1020.97 1021.87
1004.57 1004.79 1005.23 1005.50 1005.99 1006.41 1007.13 1007.25 1006.52 1007.12 1007.78 1008.35 1008.94 1009.42 1009.79 1010.19 1010.84 1011.86 1012.71 1013.31 1013.92 1014.47 1015.36 1015.88 1016.34 1017.46 1018.05 1019.19 1019.96 1020.37 1020.54 1020.99
1004.75 1004.73 1004.43 1004.68 1005.17 1005.48 1005.66 1005.83 1006.37 1006.86 1006.97 1007.16 1007.64 1008.41 1008.92 1009.60 1010.18 1010.81 1011.77 1012.53 1013.06 1013.95 1014.56 1015.21 1015.96 1016.46 1017.27 1017.84 1018.59 1019.60 1020.25 1020.61
1004.91 1004.89 1004.79 1004.55 1004.68 1004.76 1004.54 1004.51 1005.05 1005.29 1005.85 1006.21 1006.76 1007.26 1007.95 1008.43 1009.26 1010.04 1010.84 1011.95 1012.92 1013.60 1014.54 1015.22 1015.62 1016.27 1016.96 1017.77 1018.20 1018.80 1019.35 1020.06
1004.89 1004.46 1004.15 1003.98 1003.93 1003.77 1003.51 1003.58 1003.96 1004.20 1004.48 1004.74 1005.44 1005.96 1006.55 1007.55 1008.76 1009.54 1010.56 1011.77 1012.86 1013.50 1014.44 1015.37 1015.57 1016.18 1017.01 1017.53 1018.08 1018.58 1019.01 1019.53
Thickness
5757 5752 5748 5745 5743 5738 5735 5731 5727 5724 5721 5718 5715 5714 5713 5711 5710 5709 5708 5707 5706 5705 5704 5703 5703 5702 5702 5701 5701 5702 5702 5702
5753 5750 5746 5743 5739 5737 5734 5731 5727 5725 5722 5718 5715 5713 5712 5711 5709 5707 5706 5705 5704 5704 5704 5703 5703 5703 5702 5700 5700 5700 5700 5700
5751 5747 5745 5741 5738 5734 5731 5729 5726 5724 5722 5718 5714 5712 5710 5709 5708 5706 5705 5704 5703 5702 5702 5701 5701 5701 5701 5699 5698 5697 5697 5696
5751 5746 5743 5740 5737 5734 5730 5727 5724 5722 5720 5718 5715 5712 5710 5709 5706 5705 5704 5703 5701 5700 5699 5698 5698 5697 5696 5695 5694 5693 5692 5691
5753 5748 5744 5740 5737 5732 5729 5727 5724 5720 5719 5717 5714 5711 5710 5708 5705 5703 5701 5700 5699 5698 5696 5695 5694 5694 5692 5691 5690 5689 5688 5687
5752 5750 5745 5741 5737 5733 5730 5727 5723 5720 5717 5714 5711 5708 5707 5706 5704 5701 5699 5698 5696 5694 5693 5691 5690 5688 5688 5687 5687 5686 5684 5683
5755 5751 5747 5743 5739 5734 5732 5729 5726 5723 5720 5716 5711 5708 5705 5704 5704 5701 5697 5695 5694 5692 5690 5688 5685 5684 5683 5683 5682 5681 5679 5677
5757 5752 5749 5745 5742 5739 5735 5731 5727 5724 5722 5718 5714 5710 5706 5703 5701 5700 5698 5696 5692 5690 5687 5684 5681 5681 5679 5677 5676 5675 5674 5672
5764 5757 5752 5748 5745 5740 5737 5733 5727 5722 5720 5718 5715 5711 5706 5704 5702 5699 5698 5696 5692 5687 5683 5680 5677 5676 5672 5671 5670 5670 5670 5667
5766 5763 5755 5750 5747 5741 5737 5734 5731 5725 5720 5718 5713 5710 5707 5704 5700 5699 5697 5694 5691 5686 5681 5675 5672 5670 5667 5665 5664 5663 5662 5660
5766 5763 5759 5750 5742 5738 5735 5732 5730 5727 5722 5717 5714 5710 5707 5704 5700 5697 5695 5692 5689 5686 5679 5675 5668 5664 5661 5657 5654 5653 5651 5650
5764 5761 5759 5752 5742 5737 5734 5731 5729 5727 5724 5720 5714 5710 5706 5702 5699 5695 5692 5689 5685 5681 5678 5671 5665 5661 5656 5650 5647 5645 5643 5640
5768 5761 5760 5752 5747 5738 5736 5738 5732 5729 5726 5721 5717 5712 5706 5702 5698 5693 5690 5686 5683 5677 5670 5666 5660 5655 5647 5640 5639 5637 5634 5631
5770 5767 5760 5758 5753 5751 5741 5736 5735 5729 5724 5722 5717 5712 5709 5704 5699 5694 5690 5684 5679 5674 5670 5659 5654 5651 5645 5636 5633 5628 5625 5624
5772 5773 5769 5765 5759 5747 5739 5735 5731 5730 5730 5724 5722 5716 5713 5706 5700 5694 5688 5683 5677 5673 5669 5663 5651 5642 5640 5636 5622 5627 5617 5614
5760 5761 5760 5755 5750 5748 5746 5746 5738 5746 5738 5729 5723 5719 5712 5707 5699 5692 5687 5680 5675 5669 5664 5659 5651 5641 5632 5629 5624 5622 5618 5611
5757 5755 5754 5754 5751 5748 5741 5740 5748 5742 5736 5730 5724 5718 5714 5707 5702 5692 5683 5676 5669 5663 5654 5651 5649 5640 5635 5625 5618 5611 5609 5605
5739 5739 5745 5747 5745 5743 5742 5743 5739 5733 5732 5731 5727 5719 5712 5705 5699 5693 5682 5673 5666 5657 5651 5646 5642 5638 5632 5628 5621 5612 5604 5598
5726 5726 5727 5731 5734 5736 5742 5744 5741 5737 5732 5729 5724 5719 5712 5706 5697 5689 5682 5669 5657 5652 5643 5638 5635 5631 5624 5617 5613 5608 5602 5593
5718 5723 5727 5727 5729 5734 5740 5740 5739 5738 5735 5733 5726 5721 5715 5705 5691 5683 5673 5660 5648 5643 5636 5628 5626 5620 5612 5607 5603 5599 5594 5588